Blackpool, United Kingdom

8:26 PM BST on August 30, 2016 (GMT +0100)
Blackpool

Weather History for EGNH - October, 2012

Change the Weather History Date:

Wednesday, October 17, 2012

  Actual Average Record
Temperature  
Mean Temperature 49 °F -  
Max Temperature 58 °F 51 °F 65 °F (2014)
Min Temperature 40 °F 43 °F 33 °F (2002)
Degree Days  
Heating Degree Days 16    
Moisture  
Dew Point 47 °F    
Average Humidity 81    
Maximum Humidity 100    
Minimum Humidity 58    
Precipitation  
Precipitation 0.08 in - - ()
Sea Level Pressure  
Sea Level Pressure 29.28 in    
Wind  
Wind Speed 13 mph ()    
Max Wind Speed 21 mph    
Max Gust Speed -    
Visibility 6.0 miles    
Events Rain    
Averages and records for this station are not official NWS values.
T = Trace of Precipitation, MM = Missing Value Source: Averaged Metar Reports

Daily Weather History Graph

Daily Weather History Graph

Search for Another Location

Airport or City:

Trip Planner

Search our weather history database for the weather conditions in past years. The results will help you decide how hot, cold, wet, or windy it might be!

Date:

Astronomy

Oct. 17, 2012 Rise Set
Actual Time 7:43 AM BST 6:09 PM BST
Civil Twilight 7:08 AM BST 6:45 PM BST
Nautical Twilight 6:27 AM BST 7:26 PM BST
Astronomical Twilight 5:46 AM BST 8:06 PM BST
Moon 10:27 AM BST (10/17) 7:04 PM BST (10/17)
Length of Visible Light 11h 37m
Length of Day
10h 25m
Waxing Crescent, 6% of the Moon is Illuminated
Oct 17
Waxing Crescent
Oct 22
First Quarter
Oct 29
Full
Nov 7
Last Quarter
Nov 13
New

Hourly Weather History & Observations

Time (BST) Temp. Windchill Dew Point Humidity Pressure Visibility Wind Dir Wind Speed Gust Speed Precip Events Conditions
12:50 AM 44 °F - 42 °F 89%  in - East 9.2 mph - -  
6:20 AM 46.4 °F 40.1 °F 44.6 °F 93% 29.24 in 4.3 mi ENE 15.0 mph - N/A Rain Light Rain
6:50 AM 46 °F - 44 °F 88%  in - East 16.1 mph - -  
6:50 AM 46.4 °F 39.8 °F 44.6 °F 93% 29.21 in 4.3 mi East 16.1 mph - N/A Rain Light Rain
7:20 AM 46.4 °F 40.1 °F 44.6 °F 93% 29.24 in 4.3 mi ESE 15.0 mph - N/A Rain Light Rain
7:50 AM 46.4 °F 40.4 °F 46.4 °F 100% 29.21 in 6.2 mi ESE 13.8 mph - N/A   Mostly Cloudy
8:20 AM 48.2 °F - 46.4 °F 93% 29.21 in 6.2 mi SE 12.7 mph - N/A   Scattered Clouds
8:50 AM 48.2 °F - 48.2 °F 100% 29.24 in 6.2 mi SE 9.2 mph - N/A   Scattered Clouds
9:20 AM 50.0 °F - 48.2 °F 94% 29.24 in 6.2 mi SE 12.7 mph - N/A   Partly Cloudy
9:50 AM 51.8 °F - 50.0 °F 94% 29.24 in 6.2 mi SSE 11.5 mph - N/A   Partly Cloudy
10:20 AM 51.8 °F - 50.0 °F 94% 29.27 in 6.2 mi SSE 15.0 mph - N/A   Partly Cloudy
10:50 AM 51.8 °F - 50.0 °F 94% 29.27 in 6.2 mi SSE 11.5 mph - N/A   Partly Cloudy
11:20 AM 55.4 °F - 51.8 °F 88% 29.27 in 6.2 mi SSE 13.8 mph - N/A   Partly Cloudy
11:50 AM 57.2 °F - 51.8 °F 82% 29.27 in 6.2 mi South 16.1 mph - N/A   Partly Cloudy
12:20 PM 57.2 °F - 51.8 °F 82% 29.27 in 6.2 mi South 16.1 mph - N/A   Partly Cloudy
12:50 PM 57 °F - 47 °F 62%  in - South 17.3 mph - -  
12:50 PM 57.2 °F - 51.8 °F 82% 29.30 in 6.2 mi South 17.3 mph - N/A   Partly Cloudy
1:20 PM 57.2 °F - 50.0 °F 77% 29.30 in 6.2 mi South 18.4 mph - N/A   Partly Cloudy
1:50 PM 55.4 °F - 48.2 °F 77% 29.27 in 6.2 mi South 17.3 mph - N/A   Partly Cloudy
2:20 PM 55.4 °F - 46.4 °F 72% 29.30 in 6.2 mi South 16.1 mph - N/A   Partly Cloudy
2:50 PM 59.0 °F - 48.2 °F 67% 29.30 in 6.2 mi South 17.3 mph - N/A   Partly Cloudy
3:20 PM 59.0 °F - 46.4 °F 63% 29.30 in 6.2 mi South 20.7 mph - N/A   Partly Cloudy
3:50 PM 57 °F - 46 °F 58%  in - South 16.1 mph - -  
3:50 PM 57.2 °F - 48.2 °F 72% 29.30 in 6.2 mi South 17.3 mph - N/A   Partly Cloudy
4:20 PM 57.2 °F - 46.4 °F 67% 29.30 in 6.2 mi South 18.4 mph - N/A   Partly Cloudy
4:50 PM 55.4 °F - 46.4 °F 72% 29.30 in 6.2 mi South 15.0 mph - N/A   Partly Cloudy
5:20 PM 55.4 °F - 46.4 °F 72% 29.30 in 6.2 mi South 18.4 mph - N/A   Partly Cloudy
5:50 PM 55.4 °F - 44.6 °F 67% 29.33 in 6.2 mi South 18.4 mph - N/A   Partly Cloudy
6:20 PM 53.6 °F - 44.6 °F 72% 29.33 in 6.2 mi South 12.7 mph - N/A   Partly Cloudy
6:50 PM 53 °F - 44 °F 64%  in - SE 12.7 mph - -  
6:50 PM 51.8 °F - 44.6 °F 76% 29.33 in 6.2 mi SE 13.8 mph - N/A   Partly Cloudy
7:20 PM 51.8 °F - 44.6 °F 76% 29.33 in 6.2 mi SE 10.4 mph - N/A   Partly Cloudy
7:50 PM 50.0 °F - 44.6 °F 82% 29.33 in 6.2 mi ESE 9.2 mph - N/A   Partly Cloudy
8:20 PM 48.2 °F - 44.6 °F 87% 29.33 in - ESE 8.1 mph - N/A   Clear
8:50 PM 50.0 °F - 46.4 °F 87% 29.33 in - SE 15.0 mph - N/A   Clear
9:50 PM 52 °F - 46 °F 73%  in - SE 15.0 mph - -